{"data":{"norad_id":52353,"intl_designator":"2022-045Y","name":"STARLINK-3807","alt_names":[],"object_type":"PAYLOAD","status":"ACTIVE","operator":null,"country":"US","launch_date":"2022-04-29","launch_site_code":"AFETR","launch_vehicle":null,"mission":null,"orbit_class":"UNKNOWN","rcs_meters":null,"size_class":null,"mass_kg":null,"dimensions":null,"purposes":["comms"],"wikipedia_slug":null,"has_3d_model":false,"image_url":null,"decayed_at":null,"tle_current":{"epoch":"2026-05-24T16:04:46.027488Z","epoch_age_seconds":100621,"freshness":"FRESH","line1":"1 52353U 22045Y   26144.66997717  .00000782  00000+0  67196-4 0  9999","line2":"2 52353  53.2122 218.0336 0001664  79.3809 280.7371 15.08846316227259","mean_motion":15.08846316,"eccentricity":0.0001664,"inclination_deg":53.2122,"raan_deg":218.0336,"arg_perigee_deg":79.3809,"mean_anomaly_deg":280.7371,"bstar":6.7196e-5,"rev_number":22725,"period_min":95.437155178102,"perigee_km":538.5729514619,"apogee_km":540.8752156305,"semimajor_km":6917.8610835462,"source":"CELESTRAK","updated_at":"2026-05-25T13:38:17.117088Z"}}}